Weather History for Villahermosa Airport, Mexico

Change the Weather History Date:

Wednesday, July 10, 2013

  Actual Average Record
Temperature  
Mean Temperature 82 °F -  
Max Temperature 91 °F 92 °F 100 °F (2007)
Min Temperature 73 °F 75 °F 71 °F (1997)
Cooling Degree Days 17    
Growing Degree Days 32 (Base 50)    
Moisture  
Dew Point 72 °F    
Average Humidity 76    
Maximum Humidity 94    
Minimum Humidity 49    
Precipitation  
Precipitation 6.55 in - - ()
Sea Level Pressure  
Sea Level Pressure 29.97 in    
Wind  
Wind Speed 5 mph ()    
Max Wind Speed 18 mph    
Max Gust Speed 25 mph    
Visibility 6.5 miles    
Events Rain    
Averages and records for this station are not official NWS values.
T = Trace of Precipitation, MM = Missing Value Source: Averaged Metar Reports

Daily Weather History Graph

Daily Weather History Graph

Search for Another Location

Airport:

Trip Planner

Search our weather history database for the weather conditions in past years. The results will help you decide how hot, cold, wet, or windy it might be!

Date:

Astronomy

Jul. 10, 2013 Rise Set
Actual Time 6:42 AM CDT 7:50 PM CDT
Civil Twilight 6:18 AM CDT 8:14 PM CDT
Nautical Twilight 5:50 AM CDT 8:43 PM CDT
Astronomical Twilight 5:21 AM CDT 9:12 PM CDT
Moon 8:39 AM CDT (7/10) 9:30 PM CDT (7/10)
Length of Visible Light 13h 56m
Length of Day
13h 08m
Waxing Crescent, 5% of the Moon is Illuminated
Jul 10
Waxing Crescent
Jul 15
First Quarter
Jul 22
Full
Jul 29
Last Quarter
Aug 6
New

Hourly Weather History & Observations

Time (CDT) Temp. Heat Index Dew Point Humidity Pressure Visibility Wind Dir Wind Speed Gust Speed Precip Events Conditions
4:11 AM 77.0 °F - 73.4 °F 89% 29.93 in 7.0 mi ENE 4.6 mph - N/A   Scattered Clouds
4:40 AM 75.2 °F - 73.4 °F 94% 29.93 in 7.0 mi Calm Calm - N/A   Scattered Clouds
6:49 AM 73.4 °F - 71.6 °F 94% 29.97 in 7.0 mi Calm Calm - N/A   Scattered Clouds
7:47 AM 77.0 °F - 73.4 °F 89% 29.96 in 7.0 mi Calm Calm - N/A   Scattered Clouds
8:44 AM 78.8 °F - 73.4 °F 83% 29.97 in 7.0 mi Calm Calm - N/A   Mostly Cloudy
9:40 AM 80.6 °F 84.6 °F 71.6 °F 74% 30.06 in 7.0 mi East 4.6 mph - N/A   Mostly Cloudy
10:46 AM 84.2 °F 90.9 °F 73.4 °F 70% 29.99 in 7.0 mi East 4.6 mph - N/A   Mostly Cloudy
11:45 AM 86.0 °F 91.8 °F 71.6 °F 62% 30.02 in 7.0 mi ENE 8.1 mph - N/A   Scattered Clouds
12:42 PM 87.8 °F 93.8 °F 71.6 °F 58% 30.02 in 7.0 mi NE 9.2 mph - N/A   Mostly Cloudy
1:45 PM 89.6 °F 98.2 °F 73.4 °F 59% 29.98 in 7.0 mi NE 9.2 mph - N/A   Scattered Clouds
2:42 PM 91.4 °F 98.4 °F 71.6 °F 52% 29.96 in 7.0 mi ENE 9.2 mph - N/A   Scattered Clouds
3:43 PM 91.4 °F 96.8 °F 69.8 °F 49% 29.93 in 7.0 mi North 6.9 mph - N/A   Scattered Clouds
4:44 PM 89.6 °F 93.4 °F 68.0 °F 49% 29.90 in 7.0 mi North 6.9 mph - N/A   Scattered Clouds
5:43 PM 87.8 °F 93.8 °F 71.6 °F 58% 29.89 in 7.0 mi NNW 11.5 mph - N/A   Mostly Cloudy
6:21 PM 82.4 °F 86.3 °F 69.8 °F 66% 29.92 in 2.0 mi North 11.5 mph 25.3 mph N/A Rain Rain Showers
6:32 PM 78.8 °F - 71.6 °F 78% 29.92 in 5.0 mi North 18.4 mph - N/A   Drizzle
6:45 PM 75.2 °F - 71.6 °F 89% 29.93 in 7.0 mi North 9.2 mph - N/A   Overcast
7:45 PM 75.2 °F - 69.8 °F 83% 29.94 in 7.0 mi ESE 13.8 mph - N/A   Mostly Cloudy
8:45 PM 75.2 °F - 69.8 °F 83% 29.98 in 7.0 mi SSE 9.2 mph - N/A   Mostly Cloudy
9:16 PM 75.2 °F - 71.6 °F 89% 30.00 in 6.0 mi ESE 8.1 mph - N/A   Drizzle
9:42 PM 73.4 °F - 71.6 °F 94% 30.01 in 6.0 mi SE 9.2 mph - N/A   Drizzle
10:53 PM 73.4 °F - 71.6 °F 94% 30.01 in 6.0 mi East 6.9 mph - N/A   Drizzle
11:52 PM 73.4 °F - 71.6 °F 94% 29.98 in 6.0 mi East 6.9 mph - N/A   Overcast